• In United Kingdom
  • List of Countries
  • For 7 days
  • Water Temperature
  • Satellite Maps
  • Weather Map
  • Weather Widgets
  • user-avatar
    Login

    Hourly Weather Levkovichі (Volodarka)

    Today, 22 September, Saturday

    Time Temperature Precipitation Wind Pressure Humidity
    00:00 +18°C° 0 mm 3 mps 750 mmHg 63%
    01:00 +18°C° 0 mm 3 mps 750 mmHg 63%
    02:00 +17°C° 0 mm 3 mps 750 mmHg 64%
    03:00 +17°C° 0 mm 3 mps 750 mmHg 64%
    04:00 +17°C° 0 mm 3 mps 750 mmHg 64%
    05:00 +17°C° 0 mm 3 mps 749 mmHg 64%
    06:00 +18°C° 0 mm 4 mps 749 mmHg 60%
    07:00 +19°C° 0 mm 4 mps 749 mmHg 56%
    08:00 +20°C° 0 mm 5 mps 749 mmHg 52%
    09:00 +22°C° 0 mm 5 mps 748 mmHg 47%
    10:00 +24°C° 0 mm 6 mps 748 mmHg 43%
    11:00 +27°C° 0 mm 6 mps 748 mmHg 39%
    12:00 +27°C° 0 mm 6 mps 748 mmHg 40%
    13:00 +27°C° 0 mm 6 mps 748 mmHg 41%
    14:00 +27°C° 0 mm 5 mps 747 mmHg 41%
    15:00 +25°C° 0.1 mm 5 mps 748 mmHg 50%
    16:00 +22°C° 0.1 mm 6 mps 748 mmHg 59%
    17:00 +20°C° 0.1 mm 6 mps 748 mmHg 67%
    18:00 +17°C° 0.2 mm 6 mps 748 mmHg 70%
    19:00 +15°C° 0.2 mm 6 mps 749 mmHg 73%
    20:00 +11°C° 0.2 mm 6 mps 749 mmHg 76%
    21:00 +12°C° 1.9 mm 5 mps 749 mmHg 80%
    22:00 +11°C° 1.9 mm 4 mps 750 mmHg 84%
    23:00 +10°C° 1.9 mm 3 mps 750 mmHg 88%

    Tomorrow, 23 September, Sunday

    Time Temperature Precipitation Wind Pressure Humidity
    00:00 +10°C° 0.5 mm 3 mps 750 mmHg 89%
    01:00 +10°C° 0.5 mm 3 mps 750 mmHg 90%
    02:00 +10°C° 0.5 mm 2 mps 751 mmHg 91%
    03:00 +9°C° 0 mm 3 mps 750 mmHg 92%
    04:00 +9°C° 0 mm 3 mps 750 mmHg 94%
    05:00 +9°C° 0 mm 3 mps 750 mmHg 95%
    06:00 +9°C° 0 mm 3 mps 750 mmHg 92%
    07:00 +10°C° 0 mm 3 mps 750 mmHg 89%
    08:00 +10°C° 0 mm 3 mps 750 mmHg 86%
    09:00 +12°C° 0 mm 4 mps 750 mmHg 77%
    10:00 +14°C° 0 mm 4 mps 750 mmHg 67%
    11:00 +15°C° 0 mm 4 mps 750 mmHg 58%
    12:00 +17°C° 0 mm 4 mps 750 mmHg 54%
    13:00 +17°C° 0 mm 5 mps 750 mmHg 51%
    14:00 +17°C° 0 mm 5 mps 750 mmHg 47%
    15:00 +18°C° 0 mm 4 mps 750 mmHg 50%
    16:00 +17°C° 0 mm 3 mps 749 mmHg 52%
    17:00 +17°C° 0 mm 3 mps 749 mmHg 55%
    18:00 +16°C° 0 mm 3 mps 749 mmHg 59%
    19:00 +14°C° 0 mm 3 mps 749 mmHg 63%
    20:00 +12°C° 0 mm 3 mps 749 mmHg 67%
    21:00 +12°C° 0 mm 3 mps 749 mmHg 69%
    22:00 +12°C° 0 mm 3 mps 749 mmHg 72%
    23:00 +11°C° 0 mm 3 mps 748 mmHg 74%

    Day after tomorrow, 24 September, Monday

    Time Temperature Precipitation Wind Pressure Humidity
    00:00 +11°C° 0.1 mm 3 mps 748 mmHg 73%
    01:00 +12°C° 0.1 mm 4 mps 747 mmHg 73%
    02:00 +12°C° 0.1 mm 4 mps 746 mmHg 72%
    03:00 +13°C° 0.2 mm 5 mps 745 mmHg 69%
    04:00 +13°C° 0.2 mm 6 mps 743 mmHg 67%
    05:00 +12°C° 0.2 mm 7 mps 742 mmHg 64%
    06:00 +12°C° 1.9 mm 7 mps 741 mmHg 68%
    07:00 +12°C° 1.9 mm 7 mps 740 mmHg 72%
    08:00 +12°C° 1.9 mm 7 mps 739 mmHg 76%
    09:00 +13°C° 0.5 mm 8 mps 738 mmHg 77%
    10:00 +16°C° 0.5 mm 8 mps 737 mmHg 78%
    11:00 +17°C° 0.5 mm 9 mps 736 mmHg 79%
    12:00 +14°C° 0.3 mm 10 mps 737 mmHg 76%
    13:00 +13°C° 0.3 mm 11 mps 737 mmHg 73%
    14:00 +12°C° 0.3 mm 13 mps 738 mmHg 70%
    15:00 +10°C° 0 mm 12 mps 739 mmHg 68%
    16:00 +11°C° 0 mm 11 mps 741 mmHg 66%
    17:00 +11°C° 0 mm 10 mps 742 mmHg 63%
    18:00 +10°C° 0 mm 9 mps 743 mmHg 66%
    19:00 +10°C° 0 mm 8 mps 743 mmHg 68%
    20:00 +10°C° 0 mm 7 mps 744 mmHg 70%
    21:00 +9°C° 0 mm 7 mps 745 mmHg 71%
    22:00 +9°C° 0 mm 6 mps 745 mmHg 72%
    23:00 +8°C° 0 mm 6 mps 745 mmHg 72%

    25 September, Tuesday

    Time Temperature Precipitation Wind Pressure Humidity
    00:00 +8°C° 0 mm 6 mps 746 mmHg 73%
    01:00 +8°C° 0 mm 6 mps 746 mmHg 74%
    02:00 +7°C° 0 mm 6 mps 746 mmHg 75%
    03:00 +7°C° 0.2 mm 5 mps 747 mmHg 78%
    04:00 +7°C° 0.2 mm 5 mps 747 mmHg 81%
    05:00 +7°C° 0.2 mm 5 mps 748 mmHg 84%
    06:00 +7°C° 0.1 mm 6 mps 748 mmHg 82%
    07:00 +7°C° 0.1 mm 6 mps 749 mmHg 80%
    08:00 +6°C° 0.1 mm 7 mps 750 mmHg 78%
    09:00 +6°C° 0 mm 7 mps 751 mmHg 72%
    10:00 +8°C° 0 mm 7 mps 751 mmHg 65%
    11:00 +9°C° 0 mm 8 mps 752 mmHg 59%
    12:00 +10°C° 0 mm 8 mps 752 mmHg 56%
    13:00 +10°C° 0 mm 8 mps 753 mmHg 52%
    14:00 +10°C° 0 mm 8 mps 753 mmHg 49%
    15:00 +10°C° 0 mm 7 mps 753 mmHg 50%
    16:00 +9°C° 0 mm 6 mps 754 mmHg 52%
    17:00 +9°C° 0 mm 5 mps 754 mmHg 54%
    18:00 +8°C° 0 mm 5 mps 755 mmHg 59%
    19:00 +7°C° 0 mm 5 mps 755 mmHg 64%
    20:00 +6°C° 0 mm 5 mps 756 mmHg 69%
    21:00 +6°C° 0 mm 5 mps 757 mmHg 68%
    22:00 +6°C° 0 mm 5 mps 757 mmHg 68%
    23:00 +6°C° 0 mm 5 mps 758 mmHg 67%

    26 September, Wednesday

    Time Temperature Precipitation Wind Pressure Humidity
    00:00 +5°C° 0 mm 5 mps 758 mmHg 69%
    01:00 +5°C° 0 mm 5 mps 759 mmHg 70%
    02:00 +3°C° 0 mm 5 mps 759 mmHg 72%
    03:00 +4°C° 0 mm 4 mps 759 mmHg 75%
    04:00 +3°C° 0 mm 4 mps 760 mmHg 78%
    05:00 +3°C° 0 mm 4 mps 760 mmHg 81%
    06:00 +4°C° 0 mm 4 mps 760 mmHg 76%
    07:00 +5°C° 0 mm 5 mps 760 mmHg 71%
    08:00 +6°C° 0 mm 5 mps 760 mmHg 67%
    09:00 +8°C° 0 mm 5 mps 760 mmHg 61%
    10:00 +10°C° 0 mm 6 mps 759 mmHg 56%
    11:00 +11°C° 0 mm 6 mps 759 mmHg 50%
    12:00 +13°C° 0 mm 6 mps 759 mmHg 49%
    13:00 +12°C° 0 mm 7 mps 758 mmHg 47%
    14:00 +14°C° 0 mm 7 mps 758 mmHg 46%
    15:00 +13°C° 0 mm 6 mps 758 mmHg 49%
    16:00 +13°C° 0 mm 5 mps 757 mmHg 52%
    17:00 +12°C° 0 mm 5 mps 757 mmHg 55%
    18:00 +10°C° 0 mm 5 mps 757 mmHg 56%
    19:00 +9°C° 0 mm 5 mps 757 mmHg 57%
    20:00 +10°C° 0 mm 4 mps 757 mmHg 58%
    21:00 +9°C° 0 mm 5 mps 757 mmHg 59%
    22:00 +9°C° 0 mm 5 mps 756 mmHg 60%
    23:00 +8°C° 0 mm 5 mps 756 mmHg 61%

    27 September, Thursday

    Time Temperature Precipitation Wind Pressure Humidity
    00:00 +9°C° 0 mm 6 mps 755 mmHg 60%
    01:00 +9°C° 0 mm 6 mps 755 mmHg 59%
    02:00 +9°C° 0 mm 6 mps 754 mmHg 58%
    03:00 +9°C° 0 mm 6 mps 754 mmHg 58%
    04:00 +9°C° 0 mm 6 mps 754 mmHg 58%
    05:00 +9°C° 0 mm 6 mps 753 mmHg 59%
    06:00 +9°C° 0 mm 6 mps 753 mmHg 58%
    07:00 +10°C° 0 mm 7 mps 753 mmHg 57%
    08:00 +10°C° 0 mm 7 mps 752 mmHg 56%
    09:00 +11°C° 0 mm 7 mps 752 mmHg 54%
    10:00 +14°C° 0 mm 7 mps 752 mmHg 51%
    11:00 +15°C° 0 mm 7 mps 752 mmHg 49%
    12:00 +15°C° 0 mm 7 mps 751 mmHg 48%
    13:00 +16°C° 0 mm 7 mps 751 mmHg 47%
    14:00 +16°C° 0 mm 7 mps 750 mmHg 46%
    15:00 +16°C° 0 mm 7 mps 750 mmHg 48%
    16:00 +16°C° 0 mm 6 mps 749 mmHg 50%
    17:00 +16°C° 0 mm 6 mps 749 mmHg 52%
    18:00 +15°C° 0.1 mm 6 mps 749 mmHg 55%
    19:00 +14°C° 0.1 mm 6 mps 749 mmHg 58%
    20:00 +14°C° 0.1 mm 6 mps 749 mmHg 61%
    21:00 +13°C° 0.2 mm 6 mps 748 mmHg 61%
    22:00 +13°C° 0.2 mm 6 mps 748 mmHg 61%
    23:00 +11°C° 0.2 mm 6 mps 748 mmHg 61%
    Show more